{"data":{"norad_id":58394,"intl_designator":"2023-178W","name":"STARLINK-30887","alt_names":[],"object_type":"PAYLOAD","status":"ACTIVE","operator":null,"country":"US","launch_date":"2023-11-20","launch_site_code":"AFWTR","launch_vehicle":null,"mission":null,"orbit_class":"UNKNOWN","rcs_meters":null,"size_class":null,"mass_kg":null,"dimensions":null,"purposes":["comms"],"wikipedia_slug":null,"has_3d_model":false,"image_url":null,"decayed_at":null,"tle_current":{"epoch":"2026-09-19T06:16:30.353952Z","epoch_age_seconds":250660,"freshness":"STALE","line1":"1 58394U 23178W   26262.26146243 -.00000117  00000+0  76785-5 0  9993","line2":"2 58394  53.1609 177.8375 0001357 105.4292 254.6860 15.34394688159560","mean_motion":15.34394688,"eccentricity":0.0001357,"inclination_deg":53.1609,"raan_deg":177.8375,"arg_perigee_deg":105.4292,"mean_anomaly_deg":254.686,"bstar":7.6785e-6,"rev_number":15956,"period_min":93.848082977722,"perigee_km":461.79072447302,"apogee_km":463.64733279919,"semimajor_km":6840.8560286361,"source":"CELESTRAK","updated_at":"2026-09-21T09:00:33.868745Z"}}}